Home > Weather > Cleveland > Past weeks

Flag for USA Past Weather in Cleveland, Tennessee, USA — Yesterday and Last 2 Weeks

Now
86 °F

Passing clouds.


Feels Like: 89 °F
Forecast: 75 / 87 °F
Wind: 10 mph from Southwest

Location: Lovell Field

Current Time: Jul 27, 2016 at 11:04:50 PM

Latest Report: Jul 27, 2016 at 9:53 PM


Visibility: 10 mi

Pressure: 29.95 "Hg

Humidity: 55%

Dew Point: 68 °F

Location of ClevelandLocation

Past Weather in Cleveland — Graph

°F

Cleveland Temperature Yesterday

Maximum temperature yesterday: 96 °F (at 3:53 PM)
Minimum temperature yesterday: 78 °F (at 2:53 AM)
Average temperature yesterday: 85 °F

High & Low Weather Summary for the Past Weeks

 TemperatureHumidityPressure
High99 °F (Jul 20, 4:53 PM)94% (Jul 17, 1:53 AM)30.26 "Hg (Jul 17, 1:53 AM)
Low71 °F (Jul 13, 5:53 AM)27% (Jul 20, 4:53 PM)29.91 "Hg (Jul 27, 8:53 PM)
Average83 °F65%30.06 "Hg
* Reported Jul 12 9:53 PM — Jul 27 9:53 PM, Cleveland, Weather by CustomWeather, © 2016

Note: Actual official high and low records may vary slightly from our data, if they occured in-between our weather recording intervals... More about our weather records

Advertising

Cleveland Weather History for the Previous 24 Hours

Scroll right to see more
 ConditionsComfort  
Time TempWeatherWind HumidityBarometerVisibility
9:53 PM
Wed, Jul 27
86 °FPassing clouds.10 mph55%29.95 "Hg10 mi
8:53 PM89 °FPassing clouds.13 mph48%29.91 "Hg10 mi
7:53 PM91 °FPassing clouds.14 mph44%29.92 "Hg10 mi
6:53 PM93 °FScattered clouds.14 mph44%29.93 "Hg10 mi
5:53 PM93 °FScattered clouds.12 mph44%29.93 "Hg10 mi
4:53 PM94 °FScattered clouds.10 mph43%29.93 "Hg10 mi
3:53 PM94 °FScattered clouds.13 mph43%29.96 "Hg10 mi
2:53 PM94 °FPartly sunny.10 mph44%29.97 "Hg10 mi
1:53 PM91 °FPartly sunny.7 mph50%29.99 "Hg10 mi
12:53 PM90 °FPartly sunny.8 mph52%30.01 "Hg10 mi
11:53 AM89 °FPartly sunny.8 mph55%30.01 "Hg10 mi
10:53 AM86 °FPartly sunny.9 mph63%30.01 "Hg10 mi
9:53 AM83 °FBroken clouds.7 mph70%30.03 "Hg10 mi
8:53 AM81 °FBroken clouds.5 mph74%30.04 "Hg10 mi
7:53 AM77 °FBroken clouds.No wind85%30.03 "Hg10 mi
6:53 AM76 °FPassing clouds.No wind88%30.01 "Hg10 mi
5:53 AM77 °FPassing clouds.No wind82%29.99 "Hg10 mi
4:53 AM78 °FClear.No wind79%29.98 "Hg10 mi
3:53 AM78 °FClear.No wind82%29.98 "Hg10 mi
2:53 AM78 °FClear.No wind82%29.98 "Hg10 mi
1:53 AM80 °FPassing clouds.No wind76%29.99 "Hg10 mi
12:53 AM81 °FClear.No wind74%29.99 "Hg10 mi
11:53 PM
Tue, Jul 26
83 °FClear.5 mph68%30.00 "Hg10 mi
Weather by CustomWeather, © 2016

See weather overviewHow to use our weather pages